VOZ1278 YMML-YSSY

Flight info

Callsign VOZ1278
Flight time 1h 7m
Altitude 37000
Route DOSEL2/34 DOSEL Y59 RIVET
Aircraft B738/M-SDE2E3FGHIRWXY/LB1

Departure

Time 2026-05-04 11:12
Airport Melbourne Airport (YMML)

Arrival

Time 2026-05-04 12:19
Airport Sydney Kingsford Smith International Airport (YSSY)
Time Latitude Longitude Altitude Speed Heading
2026-05-04 10:28 -37.67140 144.84540 391 ft 0 kts 352°
2026-05-04 10:52 -37.67149 144.84541 391 ft 2 kts 350°
2026-05-04 10:52 -37.67158 144.84543 391 ft 2 kts 350°
2026-05-04 10:54 -37.67199 144.84624 398 ft 0 kts 261°
2026-05-04 11:01 -37.67211 144.84314 380 ft 19 kts 261°
2026-05-04 11:02 -37.67226 144.84140 380 ft 19 kts 258°
2026-05-04 11:02 -37.67331 144.84087 379 ft 19 kts 169°
2026-05-04 11:05 -37.67788 144.84177 368 ft 2 kts 172°
2026-05-04 11:06 -37.67800 144.84178 367 ft 3 kts 175°
2026-05-04 11:06 -37.67829 144.84175 367 ft 5 kts 193°
2026-05-04 11:06 -37.67865 144.84145 365 ft 7 kts 238°
2026-05-04 11:06 -37.67870 144.84128 365 ft 0 kts 253°
2026-05-04 11:10 -37.67875 144.84106 365 ft 10 kts 254°
2026-05-04 11:12 -37.64179 144.83267 2428 ft 192 kts 346°
2026-05-04 11:12 -37.62824 144.83014 3224 ft 210 kts 345°
2026-05-04 11:12 -37.61345 144.82727 4106 ft 226 kts 345°
2026-05-04 11:12 -37.59724 144.82442 4765 ft 251 kts 349°
2026-05-04 11:13 -37.57881 144.82657 4988 ft 275 kts 11°
2026-05-04 11:13 -37.56151 144.83637 5003 ft 275 kts 24°
2026-05-04 11:13 -37.54491 144.84865 5007 ft 273 kts 24°
2026-05-04 11:13 -37.52833 144.86020 5008 ft 272 kts 22°
2026-05-04 11:14 -37.51168 144.87079 5002 ft 269 kts 21°
2026-05-04 11:14 -37.49474 144.88119 5007 ft 269 kts 20°
2026-05-04 11:14 -37.47773 144.89154 5012 ft 271 kts 20°
2026-05-04 11:16 -37.38326 145.01000 7991 ft 292 kts 51°
2026-05-04 11:16 -37.37162 145.03075 8994 ft 300 kts 51°
2026-05-04 11:16 -37.35958 145.05205 10081 ft 303 kts 50°
2026-05-04 11:17 -37.34723 145.07382 10868 ft 316 kts 51°
2026-05-04 11:17 -37.33424 145.09668 11567 ft 332 kts 51°
2026-05-04 11:19 -37.23226 145.27657 17683 ft 381 kts 51°
2026-05-04 11:19 -37.21675 145.30383 18514 ft 387 kts 51°
2026-05-04 11:19 -37.20136 145.33089 19394 ft 390 kts 51°
2026-05-04 11:19 -37.18559 145.35867 20209 ft 395 kts 51°
2026-05-04 11:20 -37.16961 145.38678 21010 ft 399 kts 51°
2026-05-04 11:20 -37.15329 145.41538 21773 ft 404 kts 51°
2026-05-04 11:20 -37.13692 145.44400 22567 ft 407 kts 51°
2026-05-04 11:20 -37.12030 145.47298 23268 ft 413 kts 50°
2026-05-04 11:22 -36.99494 145.69080 25817 ft 457 kts 49°
2026-05-04 11:22 -36.97662 145.72258 26711 ft 449 kts 47°
2026-05-04 11:23 -36.95851 145.75398 27401 ft 447 kts 47°
2026-05-04 11:23 -36.94034 145.78540 28006 ft 448 kts 46°
2026-05-04 11:24 -36.83145 145.97301 31280 ft 450 kts 45°
2026-05-04 11:25 -36.81290 146.00473 31579 ft 457 kts 45°
2026-05-04 11:25 -36.79427 146.03661 32031 ft 458 kts 44°
2026-05-04 11:25 -36.77564 146.06857 32560 ft 457 kts 45°
2026-05-04 11:26 -36.73849 146.13234 33516 ft 457 kts 45°
2026-05-04 11:27 -36.60743 146.35555 36433 ft 456 kts 46°
2026-05-04 11:28 -36.58861 146.38750 36816 ft 457 kts 47°
2026-05-04 11:28 -36.56990 146.41925 37021 ft 461 kts 47°
2026-05-04 11:28 -36.53101 146.48508 37041 ft 477 kts 47°
2026-05-04 11:29 -36.49112 146.55229 37046 ft 492 kts 47°
2026-05-04 11:29 -36.45023 146.62134 37049 ft 493 kts 47°
2026-05-04 11:33 -36.16593 147.09744 37051 ft 494 kts 46°
2026-05-04 11:33 -36.12494 147.16560 37060 ft 494 kts 47°
2026-05-04 11:34 -36.08406 147.23355 37054 ft 491 kts 46°
2026-05-04 11:34 -36.04297 147.30142 37065 ft 495 kts 46°
2026-05-04 11:35 -36.00162 147.36952 37072 ft 494 kts 46°
2026-05-04 11:35 -35.96063 147.43704 37067 ft 493 kts 46°
2026-05-04 11:36 -35.91931 147.50488 37071 ft 495 kts 46°
2026-05-04 11:36 -35.87794 147.57277 37077 ft 495 kts 46°
2026-05-04 11:37 -35.83662 147.64041 37074 ft 495 kts 46°
2026-05-04 11:37 -35.79516 147.70816 37079 ft 493 kts 45°
2026-05-04 11:38 -35.75411 147.77515 37078 ft 494 kts 45°
2026-05-04 11:38 -35.71262 147.84265 37079 ft 494 kts 45°
2026-05-04 11:39 -35.67129 147.90982 37086 ft 494 kts 45°
2026-05-04 11:41 -35.52601 148.14490 37088 ft 495 kts 45°
2026-05-04 11:41 -35.48452 148.21166 37093 ft 494 kts 45°
2026-05-04 11:42 -35.44311 148.27823 37091 ft 492 kts 45°
2026-05-04 11:42 -35.40139 148.34514 37091 ft 494 kts 45°
2026-05-04 11:43 -35.35995 148.41150 37083 ft 492 kts 45°
2026-05-04 11:43 -35.31809 148.47836 37082 ft 495 kts 45°
2026-05-04 11:44 -35.27647 148.54474 37089 ft 493 kts 45°
2026-05-04 11:44 -35.23478 148.61122 37084 ft 492 kts 45°
2026-05-04 11:45 -35.19311 148.67737 37085 ft 492 kts 44°
2026-05-04 11:45 -35.15119 148.74388 37082 ft 493 kts 44°
2026-05-04 11:46 -35.10934 148.81010 37083 ft 492 kts 44°
2026-05-04 11:46 -35.06739 148.87640 37078 ft 491 kts 44°
2026-05-04 11:47 -35.02544 148.94246 37077 ft 492 kts 44°
2026-05-04 11:47 -34.98377 149.00806 37073 ft 492 kts 44°
2026-05-04 11:48 -34.94157 149.07439 37091 ft 492 kts 44°
2026-05-04 11:48 -34.89978 149.14008 37033 ft 490 kts 44°
2026-05-04 11:48 -34.87880 149.17293 36683 ft 496 kts 44°
2026-05-04 11:49 -34.85737 149.20638 36114 ft 496 kts 44°
2026-05-04 11:49 -34.83623 149.23941 35428 ft 495 kts 44°
2026-05-04 11:49 -34.81509 149.27246 34790 ft 494 kts 43°
2026-05-04 11:49 -34.79411 149.30522 34058 ft 495 kts 43°
2026-05-04 11:50 -34.77296 149.33815 33348 ft 494 kts 43°
2026-05-04 11:50 -34.75217 149.37148 32760 ft 491 kts 46°
2026-05-04 11:50 -34.73341 149.40616 32194 ft 491 kts 50°
2026-05-04 11:50 -34.71628 149.44206 31623 ft 488 kts 52°
2026-05-04 11:51 -34.70026 149.47806 31051 ft 484 kts 54°
2026-05-04 11:51 -34.68483 149.51379 30494 ft 478 kts 54°
2026-05-04 11:51 -34.66966 149.54924 29949 ft 472 kts 54°
2026-05-04 11:51 -34.65457 149.58444 29377 ft 466 kts 54°
2026-05-04 11:52 -34.63962 149.61912 28831 ft 460 kts 54°
2026-05-04 11:52 -34.62492 149.65306 28291 ft 454 kts 54°
2026-05-04 11:52 -34.61043 149.68639 27770 ft 447 kts 53°
2026-05-04 11:52 -34.59603 149.71939 27250 ft 441 kts 53°
2026-05-04 11:53 -34.58170 149.75212 26724 ft 435 kts 53°
2026-05-04 11:53 -34.57238 149.77341 26384 ft 431 kts 53°
2026-05-04 11:53 -34.55386 149.81554 25703 ft 423 kts 53°
2026-05-04 11:53 -34.54013 149.84671 25202 ft 417 kts 53°
2026-05-04 11:55 -34.44871 150.05350 21867 ft 382 kts 53°
2026-05-04 11:55 -34.43612 150.08188 21404 ft 377 kts 53°
2026-05-04 11:56 -34.42388 150.10944 20950 ft 372 kts 53°
2026-05-04 11:56 -34.41172 150.13678 20511 ft 367 kts 53°
2026-05-04 11:56 -34.39969 150.16382 20058 ft 363 kts 53°
2026-05-04 11:56 -34.38776 150.19055 19607 ft 359 kts 53°
2026-05-04 11:57 -34.37606 150.21681 19195 ft 354 kts 53°
2026-05-04 11:57 -34.36457 150.24265 18759 ft 349 kts 53°
2026-05-04 11:57 -34.35318 150.26825 18358 ft 345 kts 53°
2026-05-04 11:57 -34.34177 150.29384 17906 ft 341 kts 53°
2026-05-04 11:58 -34.33060 150.31883 17515 ft 336 kts 53°
2026-05-04 11:58 -34.31967 150.34328 17112 ft 333 kts 53°
2026-05-04 11:58 -34.30866 150.36789 16686 ft 330 kts 53°
2026-05-04 11:58 -34.29781 150.39214 16279 ft 327 kts 53°
2026-05-04 11:59 -34.28716 150.41592 15896 ft 324 kts 53°
2026-05-04 11:59 -34.27648 150.43974 15499 ft 322 kts 53°
2026-05-04 11:59 -34.26582 150.46358 15100 ft 320 kts 53°
2026-05-04 11:59 -34.25530 150.48708 14709 ft 319 kts 53°
2026-05-04 12:00 -34.24485 150.51036 14322 ft 316 kts 53°
2026-05-04 12:00 -34.23440 150.53366 13925 ft 314 kts 53°
2026-05-04 12:00 -34.22408 150.55666 13556 ft 314 kts 53°
2026-05-04 12:00 -34.21371 150.57977 13148 ft 312 kts 53°
2026-05-04 12:01 -34.20341 150.60274 12768 ft 308 kts 54°
2026-05-04 12:01 -34.19322 150.62543 12394 ft 307 kts 54°
2026-05-04 12:02 -34.13362 150.75786 10086 ft 294 kts 54°
2026-05-04 12:03 -34.12402 150.77913 9807 ft 289 kts 55°
2026-05-04 12:03 -34.11441 150.80046 9463 ft 291 kts 55°
2026-05-04 12:03 -34.10474 150.82187 9095 ft 291 kts 55°
2026-05-04 12:03 -34.09512 150.84319 9015 ft 284 kts 55°
2026-05-04 12:04 -34.08569 150.86408 9004 ft 287 kts 55°
2026-05-04 12:04 -34.07612 150.88528 8998 ft 289 kts 56°
2026-05-04 12:04 -34.06653 150.90660 8987 ft 289 kts 55°
2026-05-04 12:04 -34.05687 150.92798 8789 ft 293 kts 56°
2026-05-04 12:05 -34.04708 150.94961 8438 ft 292 kts 56°
2026-05-04 12:05 -34.03786 150.97119 8087 ft 292 kts 61°
2026-05-04 12:05 -34.03229 150.99471 7720 ft 298 kts 80°
2026-05-04 12:05 -34.03448 151.01950 7361 ft 305 kts 107°
2026-05-04 12:06 -34.04510 151.04161 7024 ft 308 kts 131°
2026-05-04 12:06 -34.06042 151.05949 6643 ft 307 kts 140°
2026-05-04 12:06 -34.07793 151.07425 6250 ft 302 kts 157°
2026-05-04 12:06 -34.09751 151.08159 6006 ft 293 kts 172°
2026-05-04 12:07 -34.11750 151.08629 5993 ft 294 kts 171°
2026-05-04 12:07 -34.13768 151.09155 5982 ft 297 kts 171°
2026-05-04 12:07 -34.15800 151.09705 5978 ft 297 kts 171°
2026-05-04 12:07 -34.17813 151.10242 5974 ft 297 kts 171°
2026-05-04 12:08 -34.19836 151.10771 5971 ft 297 kts 171°
2026-05-04 12:08 -34.21869 151.11296 5976 ft 298 kts 171°
2026-05-04 12:08 -34.23899 151.11815 5981 ft 298 kts 171°
2026-05-04 12:08 -34.25913 151.12332 5980 ft 295 kts 171°
2026-05-04 12:09 -34.27933 151.12857 5975 ft 297 kts 171°
2026-05-04 12:09 -34.29954 151.13386 5973 ft 295 kts 171°
2026-05-04 12:09 -34.31953 151.13739 5966 ft 284 kts 175°
2026-05-04 12:09 -34.33715 151.14764 6000 ft 290 kts 139°
2026-05-04 12:10 -34.34944 151.16721 5962 ft 292 kts 111°
2026-05-04 12:10 -34.35371 151.19067 5671 ft 286 kts 85°
2026-05-04 12:10 -34.34946 151.21347 5196 ft 278 kts 59°
2026-05-04 12:10 -34.33841 151.23221 4585 ft 275 kts 38°
2026-05-04 12:11 -34.32249 151.24480 3914 ft 274 kts 20°
2026-05-04 12:11 -34.30444 151.25240 3262 ft 277 kts 14°
2026-05-04 12:11 -34.28596 151.25798 2885 ft 269 kts
2026-05-04 12:11 -34.26780 151.25923 2827 ft 249 kts 353°
2026-05-04 12:12 -34.25149 151.25580 2818 ft 231 kts 345°
2026-05-04 12:12 -34.23626 151.25128 2812 ft 216 kts 345°
2026-05-04 12:12 -34.22221 151.24747 2794 ft 201 kts 346°
2026-05-04 12:12 -34.20908 151.24409 2758 ft 183 kts 346°
2026-05-04 12:13 -34.19696 151.24092 2757 ft 173 kts 346°
2026-05-04 12:14 -34.11447 151.21947 2810 ft 174 kts 346°
2026-05-04 12:15 -34.10266 151.21640 2778 ft 174 kts 346°
2026-05-04 12:15 -34.09078 151.21332 2590 ft 172 kts 346°
2026-05-04 12:15 -34.07916 151.21033 2338 ft 170 kts 346°
2026-05-04 12:15 -34.06781 151.20738 2090 ft 165 kts 346°
2026-05-04 12:16 -34.05676 151.20453 1868 ft 154 kts 346°
2026-05-04 12:16 -34.04684 151.20195 1659 ft 143 kts 346°
2026-05-04 12:16 -34.03719 151.19946 1477 ft 140 kts 346°
2026-05-04 12:16 -34.02772 151.19702 1292 ft 140 kts 346°
2026-05-04 12:17 -34.01823 151.19455 1108 ft 139 kts 347°
2026-05-04 12:17 -34.00863 151.19206 917 ft 141 kts 347°
2026-05-04 12:17 -33.99909 151.18959 742 ft 140 kts 348°
2026-05-04 12:17 -33.98970 151.18716 540 ft 136 kts 348°
2026-05-04 12:18 -33.98007 151.18472 351 ft 145 kts 348°
2026-05-04 12:18 -33.97064 151.18225 173 ft 135 kts 349°
2026-05-04 12:18 -33.96133 151.17989 41 ft 131 kts 349°
2026-05-04 12:18 -33.95400 151.17801 29 ft 71 kts 347°
2026-05-04 12:19 -33.95042 151.17706 29 ft 46 kts 349°
2026-05-04 12:19 -33.94733 151.17648 29 ft 42 kts 357°
2026-05-04 12:19 -33.94517 151.17673 29 ft 0 kts 12°
2026-05-04 12:20 -33.94512 151.17674 29 ft 1 kts 12°
2026-05-04 12:20 -33.94470 151.17693 29 ft 13 kts 21°
2026-05-04 12:20 -33.94380 151.17726 29 ft 13 kts
2026-05-04 12:20 -33.94293 151.17720 29 ft 12 kts 346°
2026-05-04 12:21 -33.94210 151.17694 29 ft 12 kts 346°
2026-05-04 12:21 -33.94127 151.17670 29 ft 12 kts 347°
2026-05-04 12:21 -33.94046 151.17647 29 ft 7 kts 347°
2026-05-04 12:21 -33.93992 151.17633 29 ft 7 kts 348°
2026-05-04 12:22 -33.93932 151.17619 29 ft 12 kts 354°
2026-05-04 12:22 -33.93860 151.17706 29 ft 20 kts 75°
2026-05-04 12:22 -33.93785 151.17743 29 ft 10 kts 355°
2026-05-04 12:22 -33.93688 151.17760 29 ft 15 kts 47°
2026-05-04 12:23 -33.93602 151.17818 29 ft 11 kts
2026-05-04 12:23 -33.93580 151.17830 29 ft 4 kts 54°
2026-05-04 12:23 -33.93576 151.17886 29 ft 5 kts 94°
2026-05-04 12:23 -33.93577 151.17891 29 ft 0 kts 94°